TimeEDT,TemperatureF,Dew PointF,Humidity,Sea Level PressureIn,VisibilityMPH,Wind Direction,Wind SpeedMPH,Gust SpeedMPH,PrecipitationIn,Events,Conditions,WindDirDegrees,DateUTC
12:53 AM,46.9,44.1,90,30.33,10.0,Calm,Calm,-,N/A,,Clear,0,2013-09-18 04:53:00
1:53 AM,46.9,44.1,90,30.32,10.0,SW,3.5,-,N/A,,Clear,220,2013-09-18 05:53:00
2:53 AM,46.0,44.1,93,30.31,10.0,SSW,3.5,-,N/A,,Clear,210,2013-09-18 06:53:00
3:53 AM,46.9,44.1,90,30.30,10.0,SSW,5.8,-,N/A,,Clear,210,2013-09-18 07:53:00
4:53 AM,46.9,44.1,90,30.30,10.0,SSW,8.1,-,N/A,,Clear,210,2013-09-18 08:53:00
5:53 AM,46.9,44.1,90,30.30,9.0,SW,6.9,-,N/A,,Clear,220,2013-09-18 09:53:00
6:53 AM,46.0,43.0,89,30.31,9.0,SSW,4.6,-,N/A,,Clear,210,2013-09-18 10:53:00
7:53 AM,48.0,45.0,89,30.31,8.0,SSW,5.8,-,N/A,,Clear,210,2013-09-18 11:53:00
8:53 AM,51.1,42.1,71,30.30,4.0,SSW,8.1,-,N/A,,Haze,200,2013-09-18 12:53:00
9:53 AM,55.9,42.1,60,30.30,4.0,South,6.9,-,N/A,,Haze,190,2013-09-18 13:53:00
10:53 AM,61.0,42.1,50,30.27,4.0,South,8.1,16.1,N/A,,Haze,190,2013-09-18 14:53:00
11:53 AM,64.0,44.1,48,30.25,6.0,Variable,5.8,-,N/A,,Haze,0,2013-09-18 15:53:00
12:53 PM,66.9,43.0,42,30.23,7.0,South,4.6,-,N/A,,Clear,190,2013-09-18 16:53:00
1:53 PM,70.0,42.1,36,30.21,5.0,Variable,4.6,-,N/A,,Haze,0,2013-09-18 17:53:00
2:53 PM,72.0,42.1,34,30.19,8.0,Variable,4.6,-,N/A,,Clear,0,2013-09-18 18:53:00
3:53 PM,72.0,44.1,37,30.16,6.0,Variable,5.8,-,N/A,,Haze,0,2013-09-18 19:53:00
4:53 PM,72.0,42.1,34,30.16,7.0,SSW,6.9,-,N/A,,Clear,210,2013-09-18 20:53:00
5:53 PM,70.0,44.1,39,30.14,10.0,SSE,5.8,-,N/A,,Clear,160,2013-09-18 21:53:00
6:53 PM,62.1,46.0,56,30.14,10.0,SSE,4.6,-,N/A,,Clear,160,2013-09-18 22:53:00
7:53 PM,55.0,45.0,69,30.15,10.0,Calm,Calm,-,N/A,,Clear,0,2013-09-18 23:53:00
8:53 PM,61.0,46.9,60,30.15,10.0,SSW,4.6,-,N/A,,Clear,200,2013-09-19 00:53:00
9:53 PM,57.9,48.0,70,30.15,10.0,SSW,5.8,-,N/A,,Clear,210,2013-09-19 01:53:00
10:53 PM,57.0,48.0,72,30.16,10.0,SSW,8.1,-,N/A,,Clear,210,2013-09-19 02:53:00
11:53 PM,57.0,46.9,69,30.15,10.0,SSW,8.1,-,N/A,,Clear,210,2013-09-19 03:53:00